Flag for Switzerland

Past Weather in 47°12'43.0"N, 7°20'47.6"E, Switzerland — Yesterday and Last 2 Weeks

Currently: 61 °F. Overcast. (Weather station: Grenchen, Switzerland). See more current weather

Past Weather in 47°12'43.0"N, 7°20'47.6"E — Graph

°F

47°12'43.0"N, 7°20'47.6"E Temperature Yesterday

Maximum temperature yesterday: 79 °F (at 3:50 pm)
Minimum temperature yesterday: 57 °F (at 4:50 am)
Average temperature yesterday: 69 °F

High & Low Weather Summary for the Past Weeks

 TemperatureHumidityPressure
High86 °F (Jun 18, 5:50 pm)100% (Jun 10, 1:50 am)30.15 "Hg (Jun 10, 1:50 am)
Low43 °F (Jun 12, 4:50 am)29% (Jun 13, 5:50 pm)29.77 "Hg (Jun 10, 1:20 am)
Average63 °F78%29.99 "Hg
* Reported Jun 10 1:20 am — Jun 24 11:20 pm, 47°12'43.0"N, 7°20'47.6"E. Weather by CustomWeather, © 2024

Note: Actual official high and low records may vary slightly from our data, if they occured in-between our weather recording intervals... More about our weather records

47°12'43.0"N, 7°20'47.6"E Weather History for the Previous 24 Hours

Scroll right to see more
 ConditionsComfort  
Time TempWeatherWind HumidityBarometerVisibility
11:20 pm
Mon, Jun 24
66 °FClear.6 mph73%29.95 "Hg10 mi
10:50 pm66 °FClear.5 mph73%29.95 "Hg10 mi
10:20 pm68 °FSunny.6 mph73%29.95 "Hg10 mi
9:50 pm66 °FSunny.6 mph78%29.95 "Hg10 mi
8:50 pm72 °FSunny.6 mph65%29.95 "Hg10 mi
8:20 pm73 °FPassing clouds.9 mph61%29.95 "HgN/A
7:50 pm75 °FPassing clouds.13 mph54%29.95 "HgN/A
7:20 pm77 °FPassing clouds.12 mph51%29.95 "HgN/A
6:50 pm77 °FPassing clouds.12 mph51%29.95 "HgN/A
6:20 pm77 °FPassing clouds.15 mph51%29.95 "HgN/A
5:50 pm79 °FPassing clouds.12 mph51%29.95 "HgN/A
5:20 pm79 °FPassing clouds.14 mph51%29.95 "HgN/A
4:50 pm79 °FPassing clouds.13 mph51%29.95 "HgN/A
4:20 pm79 °FScattered clouds.17 mph51%29.95 "HgN/A
3:50 pm79 °FScattered clouds.14 mph54%29.98 "HgN/A
3:20 pm77 °FScattered clouds.14 mph54%29.98 "HgN/A
2:20 pm75 °FScattered clouds.14 mph57%29.98 "HgN/A
1:50 pm75 °FScattered clouds.15 mph57%30.01 "HgN/A
1:20 pm77 °FScattered clouds.15 mph54%30.01 "HgN/A
12:50 pm75 °FScattered clouds.18 mph57%30.01 "HgN/A
12:20 pm72 °FScattered clouds.14 mph65%30.01 "HgN/A
11:50 am73 °FScattered clouds.15 mph61%30.01 "HgN/A
11:20 am73 °FScattered clouds.15 mph61%30.01 "HgN/A
Weather by CustomWeather, © 2024

See weather overview